User: anonymous   Login
Location: Unspecified
(0.0000°N, 0.0000°E)
Time: 18:19:55
(UTC+02:00)
Language:

Cosmos 1437 - Orbit

View from above orbital plane
View from above orbital plane
View from above satellite
View from above satellite

Ground track
Ground track

The orbit data is extracted from the following two-line orbital elements,

1 13770U 83003A   17262.83098969 +.00006342 +00000-0 +10278-3 0  9998
2 13770 081.1590 032.1756 0005510 286.6048 073.4595 15.52558011900929
Epoch (UTC): 19 September 2017 19:56:37
Eccentricity: 0.0005510
inclination: 81.1590°
perigee height: 405 km
apogee height: 413 km
right ascension of ascending node: 32.1756°
argument of perigee: 286.6048°
revolutions per day: 15.52558011
mean anomaly at epoch: 73.4595°
orbit number at epoch: 90092

The dashed part of the orbit path shows where the satellite is in the earth's shadow,  

DLR